This is the latest recevied weather packets stored in our database for station/object KC3QLX. If no packets are shown the sender has not sent any weather packets the latest 10 day(s).
| Time | Temp. | Humidity | Pressure | Rain* | Wind** | Luminosity | Snow |
|---|---|---|---|---|---|---|---|
| 1778003226 | 27.22° C | 40% | 1008.3 hPa | 0 mm | - | 701 W/m² | - |
| 1778002923 | 26.67° C | 40% | 1008.4 hPa | 0 mm | - | 718 W/m² | - |
| 1778002619 | 26.67° C | 42% | 1008.3 hPa | 0 mm | - | 638 W/m² | - |
| 1778002316 | 26.67° C | 42% | 1008.4 hPa | 0 mm | - | 283 W/m² | - |
| 1778002013 | 26.67° C | 44% | 1008.5 hPa | 0 mm | - | 762 W/m² | - |
| 1778001710 | 26.67° C | 41% | 1008.3 hPa | 0 mm | - | 771 W/m² | - |
| 1778001410 | 26.67° C | 41% | 1008.7 hPa | 0 mm | - | 766 W/m² | - |
| 1778001107 | 26.67° C | 41% | 1008.3 hPa | 0 mm | - | 791 W/m² | - |
| 1778000804 | 26.67° C | 41% | 1008.7 hPa | 0 mm | - | 707 W/m² | - |
| 1778000501 | 26.67° C | 41% | 1008.7 hPa | 0 mm | - | 754 W/m² | - |
| 1778000201 | 26.67° C | 43% | 1008.9 hPa | 0 mm | - | 746 W/m² | - |
| 1777999897 | 26.67° C | 44% | 1008.9 hPa | 0 mm | - | 764 W/m² | - |
| 1777999593 | 26.11° C | 45% | 1008.9 hPa | 0 mm | - | 737 W/m² | - |
| 1777999291 | 26.11° C | 47% | 1008.9 hPa | 0 mm | - | 723 W/m² | - |
| 1777998989 | 26.11° C | 48% | 1009.2 hPa | 0 mm | - | 722 W/m² | - |
| 1777998686 | 26.11° C | 45% | 1009 hPa | 0 mm | - | 758 W/m² | - |
| 1777998383 | 25.56° C | 47% | 1009.1 hPa | 0 mm | - | 738 W/m² | - |
| 1777998081 | 25.56° C | 47% | 1009.2 hPa | 0 mm | - | 745 W/m² | - |
| 1777997778 | 26.11° C | 47% | 1009.3 hPa | 0 mm | - | 736 W/m² | - |
| 1777997475 | 25.56° C | 50% | 1009.2 hPa | 0 mm | - | 737 W/m² | - |
| 1777997173 | 25.56° C | 47% | 1009.5 hPa | 0 mm | - | 768 W/m² | - |
| 1777996870 | 25° C | 51% | 1009.3 hPa | 0 mm | - | 770 W/m² | - |
| 1777996566 | 25° C | 49% | 1009.5 hPa | 0 mm | - | 769 W/m² | - |
| 1777996262 | 25° C | 49% | 1009.4 hPa | 0 mm | - | 769 W/m² | - |
| 1777995958 | 25° C | 51% | 1009.6 hPa | 0 mm | - | 761 W/m² | - |
* Rain latest hour (hover to see other rain measurements)
** Current wind speed in m/s (hover to see current wind gust speed)